�������l�o���
Date,Time,MP-1(��Sv/h),MP-2(��Sv/h),MP-3(��Sv/h),MP-4(��Sv/h),MP-5(��Sv/h),MP-6(��Sv/h),MP-7(��Sv/h),����,����(m/s),���J
2017/10/04,00:00,0.343,0.215,0.354,0.332,0.316,0.175,0.104,�k,8.4,��
2017/10/04,00:10,0.346,0.214,0.352,0.333,0.319,0.175,0.103,�k,7.8,��
2017/10/04,00:20,0.344,0.215,0.354,0.333,0.315,0.174,0.104,�k,8.3,��
2017/10/04,00:30,0.344,0.213,0.352,0.333,0.318,0.173,0.103,�k,8.7,��
2017/10/04,00:40,0.344,0.216,0.354,0.332,0.316,0.175,0.103,�k,9.3,��
2017/10/04,00:50,0.345,0.215,0.352,0.333,0.318,0.174,0.103,�k�k��,10.3,��
2017/10/04,01:00,0.343,0.214,0.353,0.333,0.317,0.174,0.104,�k,9.5,��
2017/10/04,01:10,0.346,0.215,0.353,0.332,0.316,0.174,0.103,�k�k��,9.8,��
2017/10/04,01:20,0.343,0.213,0.351,0.333,0.318,0.174,0.104,�k�k��,9.8,��
2017/10/04,01:30,0.346,0.216,0.353,0.332,0.316,0.176,0.104,�k�k��,10.2,��
2017/10/04,01:40,0.343,0.214,0.351,0.333,0.319,0.173,0.104,�k,9.0,��
2017/10/04,01:50,0.345,0.214,0.353,0.331,0.316,0.175,0.103,�k�k��,9.9,��
2017/10/04,02:00,0.343,0.214,0.352,0.334,0.319,0.173,0.103,�k,9.0,��
2017/10/04,02:10,0.347,0.214,0.355,0.332,0.316,0.176,0.102,�k,8.9,��
2017/10/04,02:20,0.343,0.216,0.352,0.333,0.320,0.175,0.104,�k,9.5,��
2017/10/04,02:30,0.346,0.215,0.353,0.332,0.316,0.175,0.104,�k,8.9,��
2017/10/04,02:40,0.345,0.215,0.352,0.333,0.319,0.175,0.104,�k,9.5,��
2017/10/04,02:50,0.345,0.215,0.353,0.331,0.316,0.174,0.103,�k�k��,9.3,��
2017/10/04,03:00,0.345,0.214,0.352,0.331,0.317,0.175,0.104,�k,8.9,��
2017/10/04,03:10,0.344,0.215,0.351,0.334,0.319,0.175,0.102,�k,9.6,��
2017/10/04,03:20,0.345,0.213,0.356,0.331,0.315,0.175,0.104,�k,10.1,��
2017/10/04,03:30,0.344,0.215,0.351,0.332,0.318,0.175,0.104,�k,10.5,��
2017/10/04,03:40,0.347,0.215,0.354,0.331,0.316,0.175,0.103,�k�k��,10.0,��
2017/10/04,03:50,0.344,0.214,0.352,0.333,0.318,0.176,0.104,�k�k��,9.0,��
2017/10/04,04:00,0.346,0.216,0.354,0.331,0.317,0.175,0.102,�k,8.7,��
2017/10/04,04:10,0.343,0.214,0.354,0.332,0.318,0.174,0.104,�k,8.2,��
2017/10/04,04:20,0.345,0.215,0.351,0.333,0.318,0.173,0.103,�k,7.2,��
2017/10/04,04:30,0.345,0.214,0.354,0.332,0.316,0.175,0.104,�k,8.5,��
2017/10/04,04:40,0.345,0.215,0.352,0.332,0.319,0.175,0.103,�k,8.3,��
2017/10/04,04:50,0.345,0.215,0.355,0.331,0.316,0.175,0.103,�k,10.1,��
2017/10/04,05:00,0.345,0.214,0.351,0.334,0.320,0.174,0.103,�k,8.1,��
2017/10/04,05:10,0.345,0.215,0.353,0.331,0.316,0.175,0.104,�k,7.5,��
2017/10/04,05:20,0.343,0.214,0.353,0.333,0.319,0.174,0.104,�k,7.3,��
2017/10/04,05:30,0.347,0.214,0.353,0.331,0.316,0.175,0.103,�k,7.5,��
2017/10/04,05:40,0.345,0.215,0.353,0.332,0.320,0.175,0.104,�k,7.1,��
2017/10/04,05:50,0.345,0.213,0.351,0.331,0.317,0.175,0.104,�k,6.1,��
2017/10/04,06:00,0.344,0.215,0.354,0.332,0.318,0.175,0.103,�k,6.1,��
2017/10/04,06:10,0.346,0.215,0.351,0.332,0.319,0.175,0.104,�k,6.6,��
2017/10/04,06:20,0.345,0.213,0.354,0.331,0.316,0.174,0.103,�k,6.3,��
2017/10/04,06:30,0.346,0.215,0.352,0.333,0.318,0.175,0.104,�k,6.2,��
2017/10/04,06:40,0.347,0.215,0.354,0.331,0.316,0.174,0.103,�k,7.0,��
2017/10/04,06:50,0.344,0.214,0.354,0.332,0.318,0.175,0.103,�k,7.4,��
2017/10/04,07:00,0.346,0.215,0.352,0.331,0.316,0.174,0.103,�k,7.7,��
2017/10/04,07:10,0.343,0.214,0.354,0.332,0.319,0.174,0.103,�k,7.9,��
2017/10/04,07:20,0.346,0.215,0.352,0.331,0.316,0.175,0.103,�k,7.0,��
2017/10/04,07:30,0.343,0.214,0.355,0.332,0.316,0.174,0.103,�k,6.7,��
2017/10/04,07:40,0.345,0.214,0.351,0.332,0.318,0.175,0.103,�k,6.7,��
2017/10/04,07:50,0.345,0.214,0.354,0.332,0.316,0.173,0.103,�k,7.0,��
2017/10/04,08:00,0.345,0.215,0.354,0.333,0.318,0.175,0.103,�k,8.0,��
2017/10/04,08:10,0.346,0.215,0.352,0.331,0.315,0.175,0.104,�k,6.6,��
2017/10/04,08:20,0.344,0.214,0.354,0.334,0.318,0.174,0.103,�k,5.9,��
2017/10/04,08:30,0.346,0.214,0.352,0.331,0.315,0.175,0.103,�k�k��,4.5,��
2017/10/04,08:40,0.344,0.213,0.354,0.334,0.317,0.174,0.103,�k,4.5,��
2017/10/04,08:50,0.347,0.214,0.351,0.332,0.314,0.174,0.103,�k�k��,2.9,��
2017/10/04,09:00,0.344,0.215,0.354,0.334,0.318,0.175,0.104,�k,2.2,��
2017/10/04,09:10,0.346,0.215,0.350,0.331,0.315,0.174,0.103,�k�k��,2.1,��
2017/10/04,09:20,0.344,0.214,0.355,0.334,0.317,0.174,0.103,�k,2.5,��
2017/10/04,09:30,0.346,0.215,0.351,0.331,0.316,0.174,0.103,�k,2.2,��
2017/10/04,09:40,0.344,0.214,0.354,0.335,0.316,0.174,0.103,�k,1.4,��
2017/10/04,09:50,0.345,0.214,0.352,0.331,0.318,0.174,0.103,�k,1.7,��
2017/10/04,10:00,0.343,0.215,0.355,0.334,0.316,0.175,0.103,�k,3.1,��
2017/10/04,10:10,0.344,0.214,0.352,0.330,0.317,0.173,0.103,�k,3.4,��
2017/10/04,10:20,0.345,0.215,0.354,0.333,0.315,0.174,0.104,�k�k��,1.8,��
2017/10/04,10:30,0.343,0.213,0.353,0.331,0.318,0.174,0.103,�k��,2.4,��
2017/10/04,10:40,0.344,0.215,0.355,0.332,0.315,0.175,0.103,�k��,4.1,��
2017/10/04,10:50,0.341,0.216,0.353,0.333,0.316,0.175,0.103,�k�k��,4.7,��
2017/10/04,11:00,0.340,0.212,0.348,0.330,0.318,0.173,0.104,�k,3.0,��
2017/10/04,11:10,0.345,0.212,0.352,0.328,0.314,0.173,0.104,�k�k��,3.5,��
2017/10/04,11:20,0.341,0.214,0.354,0.328,0.313,0.174,0.104,�k,2.9,��
2017/10/04,11:30,0.341,0.214,0.349,0.330,0.316,0.174,0.103,�k�k��,6.2,��
2017/10/04,11:40,0.345,0.214,0.351,0.332,0.316,0.173,0.103,�k�k��,6.2,��
2017/10/04,11:50,0.344,0.215,0.353,0.330,0.315,0.174,0.104,�k��,2.4,��
2017/10/04,12:00,0.344,0.216,0.351,0.329,0.319,0.175,0.102,�k�k��,2.7,��
2017/10/04,12:10,0.347,0.214,0.355,0.333,0.318,0.174,0.103,�k�k��,4.7,��
2017/10/04,12:20,0.344,0.215,0.353,0.333,0.314,0.175,0.104,�k��,5.6,��
2017/10/04,12:30,0.346,0.215,0.350,0.332,0.317,0.175,0.103,�k��,5.5,��
2017/10/04,12:40,0.347,0.214,0.349,0.330,0.319,0.175,0.102,�k��,5.0,��
2017/10/04,12:50,0.343,0.215,0.354,0.328,0.316,0.174,0.104,�k��,5.6,��
2017/10/04,13:00,0.344,0.216,0.352,0.328,0.314,0.174,0.103,���k��,3.1,��
2017/10/04,13:10,0.345,0.214,0.350,0.328,0.313,0.175,0.103,���k��,4.2,��
2017/10/04,13:20,0.345,0.213,0.349,0.334,0.317,0.174,0.103,�k��,5.3,��
2017/10/04,13:30,0.343,0.214,0.352,0.334,0.318,0.176,0.102,���k��,3.5,��
2017/10/04,13:40,0.347,0.216,0.354,0.331,0.317,0.175,0.102,�k��,5.2,��
2017/10/04,13:50,0.345,0.215,0.352,0.331,0.316,0.174,0.104,���k��,6.4,��
2017/10/04,14:00,0.345,0.215,0.356,0.336,0.319,0.176,0.102,���k��,6.9,��
2017/10/04,14:10,0.347,0.215,0.353,0.332,0.316,0.175,0.103,���k��,5.9,��
2017/10/04,14:20,0.346,0.216,0.355,0.335,0.319,0.175,0.104,�k�k��,2.5,�L
2017/10/04,14:30,0.349,0.216,0.355,0.333,0.317,0.176,0.102,�k��,5.6,�L
2017/10/04,14:40,0.346,0.215,0.353,0.332,0.319,0.174,0.103,�k��,4.8,��
2017/10/04,14:50,0.349,0.216,0.355,0.334,0.319,0.175,0.103,�k��,3.8,��
2017/10/04,15:00,0.345,0.215,0.351,0.331,0.316,0.174,0.105,�k�k��,5.9,��
2017/10/04,15:10,0.347,0.217,0.357,0.335,0.318,0.174,0.103,�k,6.6,��
2017/10/04,15:20,0.347,0.216,0.353,0.333,0.316,0.175,0.103,�k�k��,5.9,��
2017/10/04,15:30,0.346,0.217,0.355,0.332,0.318,0.175,0.104,�k�k��,7.0,��
2017/10/04,15:40,0.347,0.216,0.353,0.335,0.319,0.175,0.103,�k�k��,5.8,��
2017/10/04,15:50,0.344,0.217,0.355,0.333,0.316,0.174,0.103,�k��,7.3,��
2017/10/04,16:00,0.347,0.216,0.354,0.334,0.319,0.174,0.103,�k�k��,6.0,��
2017/10/04,16:10,0.346,0.216,0.356,0.334,0.317,0.175,0.103,�k�k��,5.7,��
2017/10/04,16:20,0.347,0.215,0.354,0.335,0.320,0.175,0.103,�k��,4.6,��
2017/10/04,16:30,0.346,0.217,0.357,0.333,0.317,0.176,0.104,�k��,4.5,��
2017/10/04,16:40,0.348,0.215,0.356,0.334,0.318,0.175,0.103,�k��,3.2,��
2017/10/04,16:50,0.346,0.217,0.357,0.333,0.317,0.175,0.103,�k�k��,3.7,��
2017/10/04,17:00,0.346,0.216,0.353,0.333,0.320,0.176,0.103,�k�k��,4.2,��
2017/10/04,17:10,0.346,0.216,0.355,0.335,0.316,0.176,0.104,�k�k��,5.0,��
2017/10/04,17:20,0.346,0.216,0.355,0.334,0.320,0.176,0.103,�k��,3.3,��
2017/10/04,17:30,0.349,0.216,0.355,0.335,0.320,0.175,0.104,�k��,3.6,��
2017/10/04,17:40,0.347,0.217,0.355,0.333,0.319,0.175,0.103,�k�k��,4.5,��
2017/10/04,17:50,0.348,0.216,0.356,0.335,0.321,0.177,0.103,�k��,5.3,��
2017/10/04,18:00,0.346,0.216,0.356,0.334,0.317,0.175,0.103,�k��,7.4,��
2017/10/04,18:10,0.348,0.215,0.353,0.334,0.320,0.175,0.103,�k��,6.8,��
2017/10/04,18:20,0.346,0.216,0.355,0.334,0.316,0.176,0.104,���k��,5.5,��
2017/10/04,18:30,0.348,0.216,0.354,0.335,0.319,0.175,0.103,�k��,3.9,��
2017/10/04,18:40,0.346,0.216,0.355,0.335,0.317,0.175,0.103,���k��,2.2,��
2017/10/04,18:50,0.346,0.215,0.356,0.335,0.319,0.175,0.104,���k��,4.0,��
2017/10/04,19:00,0.347,0.216,0.355,0.334,0.318,0.176,0.104,���k��,3.6,��
2017/10/04,19:10,0.346,0.216,0.356,0.333,0.321,0.176,0.103,�k��,4.5,��
2017/10/04,19:20,0.348,0.215,0.355,0.334,0.319,0.177,0.103,�k��,5.7,��
2017/10/04,19:30,0.347,0.217,0.357,0.334,0.317,0.175,0.104,�k��,5.9,��
2017/10/04,19:40,0.348,0.215,0.355,0.333,0.318,0.176,0.104,���k��,4.1,��
2017/10/04,19:50,0.347,0.215,0.355,0.335,0.318,0.175,0.104,�k��,3.7,��
2017/10/04,20:00,0.346,0.215,0.356,0.335,0.319,0.176,0.104,�k��,4.1,��
2017/10/04,20:10,0.348,0.215,0.355,0.334,0.317,0.176,0.104,���k��,3.5,��
2017/10/04,20:20,0.345,0.216,0.357,0.334,0.317,0.176,0.104,�k��,3.9,��
2017/10/04,20:30,0.347,0.215,0.355,0.333,0.318,0.176,0.104,���k��,4.7,��
2017/10/04,20:40,0.346,0.215,0.356,0.335,0.317,0.175,0.104,���k��,5.6,��
2017/10/04,20:50,0.346,0.216,0.355,0.333,0.319,0.175,0.103,���k��,6.4,��
2017/10/04,21:00,0.346,0.215,0.355,0.334,0.316,0.176,0.103,���k��,5.7,��
2017/10/04,21:10,0.345,0.216,0.356,0.335,0.317,0.177,0.104,���k��,5.8,��
2017/10/04,21:20,0.348,0.216,0.355,0.333,0.318,0.176,0.103,���k��,5.1,��
2017/10/04,21:30,0.347,0.215,0.355,0.335,0.317,0.176,0.104,���k��,4.2,��
2017/10/04,21:40,0.346,0.217,0.357,0.335,0.318,0.176,0.104,���k��,5.6,��
2017/10/04,21:50,0.346,0.215,0.354,0.334,0.318,0.177,0.104,���k��,6.2,��
2017/10/04,22:00,0.347,0.216,0.355,0.336,0.317,0.176,0.104,�k��,5.9,��
2017/10/04,22:10,0.348,0.216,0.357,0.333,0.318,0.176,0.103,�k��,5.7,��
2017/10/04,22:20,0.346,0.216,0.356,0.334,0.317,0.175,0.103,�k��,6.4,��
2017/10/04,22:30,0.346,0.216,0.355,0.334,0.319,0.174,0.103,��,2.4,��
2017/10/04,22:40,0.348,0.217,0.356,0.334,0.319,0.175,0.103,�k��,4.7,��
2017/10/04,22:50,0.347,0.216,0.355,0.335,0.318,0.176,0.103,���k��,4.5,��
2017/10/04,23:00,0.347,0.215,0.355,0.335,0.319,0.176,0.104,�k��,4.3,��
2017/10/04,23:10,0.347,0.216,0.355,0.334,0.318,0.176,0.104,�k��,4.5,��
2017/10/04,23:20,0.346,0.215,0.356,0.335,0.317,0.177,0.103,���k��,2.4,��
2017/10/04,23:30,0.349,0.217,0.356,0.332,0.318,0.176,0.103,���k��,1.9,��
2017/10/04,23:40,0.346,0.216,0.355,0.334,0.316,0.176,0.104,���k��,1.7,��
2017/10/04,23:50,0.347,0.218,0.357,0.335,0.318,0.176,0.103,�k��,2.2,��
